#timestamp,LO_Frequency,Hit,StdDev 
1594321215.7,286046999.8,N
1594321235.5,286047002.6,N
1594321255.3,286047002.0,N
1594321275.2,286047004.3,N
1594321295.0,286047004.1,N
1594321295.9,286047004.1,N
1594321315.7,286047003.8,N
1594321335.6,286047003.9,N
1594321355.4,286047003.4,N
1594321375.3,286047003.5,N
1594321395.1,286047003.7,N
1594321396.0,286047003.7,N
1594321415.8,286047001.4,N
1594321435.7,286047003.9,N
1594321455.5,286047003.8,N
1594321475.4,286047002.9,N
1594321495.2,286047005.7,Y
1594321515.0,286047004.0,P
1594321515.9,286047004.0,P
1594321535.8,286047004.0,P
1594321555.6,286047004.1,Y
1594321575.5,286047001.2,P
1594321595.3,286046999.9,N
1594321615.1,286047000.1,N
1594321635.9,286047002.8,N
1594321655.7,286047002.7,N
1594321675.5,286046999.8,N
1594321695.4,286046999.8,N
1594321715.2,286047002.4,N
1594321735.0,286047000.3,N
1594321735.9,286047000.3,N
1594321755.8,286047000.2,N
1594321775.6,286047002.4,N
1594321795.5,286047001.7,N
1594321815.3,286047004.1,Y
1594321835.1,286047003.9,P
1594321855.9,286047003.1,N
1594321875.7,286047005.5,P
1594321895.5,286047005.8,Y
1594321915.4,286047001.8,P
1594321935.2,286047001.9,N
1594321955.1,286047001.5,N
1594321956.0,286047001.5,N
1594321975.8,286047001.8,N
1594321995.6,286047001.6,N
1594322015.5,286047004.0,Y
1594322035.3,286047002.7,P
1594322055.2,286047002.2,P
1594322075.9,286047001.9,P
1594322095.7,286047004.3,Y
1594322115.6,286047001.9,P
1594322135.4,286047004.2,P
1594322155.2,286047003.5,P
1594322175.1,286047005.4,Y
1594322195.9,286047004.3,P
1594322215.7,286047003.8,P
1594322235.5,286047003.0,P
1594322255.4,286047004.7,Y
1594322275.2,286047001.6,P
1594322295.0,286047003.2,P
1594322295.9,286047003.2,P
1594322315.8,286047005.6,Y
1594322335.6,286047002.5,P
1594322355.5,286047002.6,P
1594322375.3,286047000.2,N
1594322395.1,286047001.4,N
1594322415.9,286047003.8,Y
1594322435.7,286047002.0,P
1594322455.5,286047002.2,P
1594322475.4,286047003.8,P
1594322495.2,286047004.3,Y
1594322515.1,286047001.9,P
1594322516.0,286047001.9,P
1594322535.8,286047001.5,P
1594322555.6,286047001.5,Y
1594322575.5,286047002.4,P
1594322595.3,286047002.4,P
1594322615.2,286047001.8,P
1594322635.9,286047001.5,Y
1594322655.7,286047001.6,P
1594322675.6,286046999.8,N
1594322695.4,286047000.4,N
1594322715.2,286047002.8,N
1594322735.1,286047002.5,N
1594322736.0,286047002.5,N
1594322755.8,286047004.2,Y
1594322775.7,286047001.3,P
1594322795.5,286047003.1,P
1594322815.3,286047003.0,P
1594322835.2,286047004.7,Y
1594322855.0,286047002.9,P
1594322855.9,286047002.9,P
1594322875.8,286047005.1,P
1594322895.6,286047004.6,Y
1594322915.4,286047004.0,P
1594322935.3,286047004.4,P
1594322955.1,286047001.5,P
1594322975.8,286047001.3,N
1594322995.7,286047003.9,Y
1594323015.5,286047002.8,P
1594323035.4,286047001.4,P
1594323055.2,286047001.4,N
1594323075.0,286047001.3,N
1594323075.9,286047001.3,N
1594323095.8,286047003.5,Y
1594323115.6,286047002.3,P
1594323135.4,286047002.7,P
1594323155.3,286046999.9,N
1594323175.1,286047002.8,N
1594323195.9,286046999.7,N
1594323215.7,286047002.0,N
1594323235.5,286047001.7,N
1594323255.4,286047001.4,N
1594323275.2,286047004.1,Y
1594323295.0,286047002.6,P
1594323296.0,286047002.6,P
1594323315.8,286047001.5,P
1594323335.6,286047000.1,N
1594323355.5,286046999.8,N
1594323375.3,286047002.3,N
1594323395.1,286046999.9,N
1594323415.9,286047002.5,N
1594323435.7,286047002.3,N
1594323455.5,286047002.8,N
1594323475.4,286047002.3,N
1594323495.2,286046999.9,N
1594323515.1,286047002.7,N
1594323516.0,286047002.7,N
1594323535.8,286047000.1,N
1594323555.6,286047001.9,N
1594323575.5,286047002.5,N
1594323595.3,286047002.5,N
1594323615.1,286047002.3,N
1594323635.9,286047001.1,N
1594323655.7,286046995.6,Y
1594323675.6,286046990.6,P
1594323695.4,286046989.0,N
1594323715.2,286046993.2,N
1594323735.1,286046987.1,N
1594323736.0,286046987.1,N
1594323755.8,286046991.6,N
1594323775.6,286046989.5,N
1594323795.5,286046991.5,N
1594323815.3,286046989.3,N
1594323835.2,286046991.1,N
1594323855.9,286046992.6,N
1594323875.7,286046992.3,N
1594323895.6,286046994.5,N
1594323915.4,286046994.5,N
1594323935.2,286046996.1,N
1594323955.1,286046995.8,N
1594323956.0,286046995.8,N
1594323975.8,286046995.0,N
1594323995.7,286046994.9,N
1594324015.5,286046995.4,N
1594324035.3,286046998.0,N
1594324055.2,286046996.8,N
1594324075.0,286046997.9,N
1594324075.9,286046997.9,N
1594324095.7,286046996.5,N
1594324115.6,286046999.2,N
1594324135.4,286046999.3,N
1594324155.3,286047000.7,N
1594324175.1,286047000.1,N
1594324176.0,286047000.1,N
1594324195.8,286046999.7,N
1594324215.7,286047002.0,N
1594324235.5,286047002.1,N
1594324255.3,286047002.0,N
1594324275.2,286047001.7,N
1594324295.0,286047003.1,N
1594324295.9,286047003.1,N
1594324315.8,286047005.6,N
1594324335.6,286047006.8,N
1594324355.4,286047006.8,N
1594324405.3,286047006.3,E
1594324415.2,286047005.8,N
1594324435.1,286047002.5,P
1594324436.0,286047002.5,N
1594324455.8,286047001.7,N
1594324475.6,286047002.1,N
1594324495.5,286047001.8,N
1594324515.3,286047004.0,N
1594324535.2,286047005.4,Y
1594324555.9,286047000.1,P
1594324575.7,286046999.0,N
1594324595.6,286046999.1,N
1594324615.4,286046998.7,N
1594324635.2,286047000.1,N
1594324655.1,286047000.7,N
1594324656.0,286047000.7,N
1594324675.8,286046998.3,N
1594324695.7,286047000.3,N
1594324715.5,286047001.4,N
1594324735.3,286047002.9,N
1594324755.2,286047004.7,Y
1594324775.0,286047006.9,P
1594324775.9,286047006.9,N
1594324795.8,286047008.5,N
